Lid_Strength_Index
2 2 2 2 2 2 2 2 2 2 3 4 4 4 5 4 6 7 9 8 9 12 11 10 9 11 11 11 13 10 10 8 9 12 13 13 14 12 14 11 13 15 16 16 15 17 19 8 8 12 9 8 8 8
2 3 3 2 2 2 2 2 2 2 3 4 4 4 5 4 6 7 10 7 7 10 11 9 9 8 9 9 10 10 9 8 8 11 11 10 12 12 13 17 10 15 12 14 14 14 8 7 9 8 8 9 8 8
2 2 2 2 2 2 2 2 2 2 3 4 4 4 4 4 6 7 9 8 9 11 11 10 10 7 7 7 7 11 8 6 7 6 9 10 13 10 15 14 12 10 9 12 12 9 9 8 8 8 7 7 6 6
3 3 2 2 2 2 2 2 2 2 3 4 4 5 5 5 6 6 9 7 9 10 13 11 6 7 5 6 6 6 5 6 6 7 9 10 11 8 11 11 11 10 10 11 11 9 9 8 8 8 6 6 7 8
3 2 2 2 2 2 2 2 2 3 3 3 4 5 5 5 6 7 7 7 7 10 13 12 9 8 7 6 7 5 5 6 8 9 9 10 8 9 9 10 11 9 10 12 13 10 10 10 8 7 8 8 8 9
2 2 2 2 2 2 2 2 2 3 3 3 4 5 5 5 6 8 11 8 7 8 11 14 9 9 7 6 6 6 6 7 8 10 9 8 6 8 12 14 9 8 8 7 10 8 8 8 8 7 8 8 9 10
2 2 2 2 2 2 2 2 2 2 3 3 4 5 5 5 7 10 10 8 7 7 11 13 12 8 7 7 7 6 5 7 8 9 9 8 8 8 10 13 9 9 9 9 9 9 10 9 10 8 8 9 9 11
2 2 2 2 3 3 2 1 2 2 3 4 4 4 5 6 8 9 7 7 6 9 9 14 13 10 6 9 8 6 8 7 8 8 7 9 8 8 12 9 9 9 9 9 9 9 9 8 8 7 8 10 12 12
3 2 2 2 2 2 2 2 2 2 3 4 4 5 7 8 10 9 6 6 6 9 13 12 14 13 6 8 6 7 6 10 7 9 9 8 10 12 10 11 10 10 10 9 9 9 9 9 8 8 9 11 12 13
3 3 2 2 2 2 2 2 2 3 4 4 6 9 10 8 6 5 8 10 11 10 11 13 11 13 8 8 9 8 7 10 11 10 7 10 10 8 9 9 9 9 8 9 11 11 10 9 9 9 9 11 12 12
3 3 2 2 1 2 1 2 3 3 4 7 9 9 7 5 7 9 12 12 13 14 12 12 11 13 7 10 10 8 10 9 13 11 11 12 12 9 8 8 8 8 8 8 9 9 9 9 9 9 9 10 11 12
2 2 1 1 1 1 2 3 3 5 6 7 7 6 6 9 10 12 12 11 13 13 11 11 10 10 7 7 10 8 10 9 14 8 11 14 10 9 8 9 8 8 8 8 8 9 9 9 8 9 9 10 11 11
2 2 2 2 1 1 3 3 4 4 5 6 8 10 10 11 14 15 15 13 12 10 9 10 11 9 8 8 9 9 11 12 8 12 13 11 9 9 9 9 8 8 8 8 8 8 8 8 8 9 9 9 11 11
2 2 2 2 2 2 3 4 4 5 6 9 11 14 12 13 13 12 12 11 9 8 9 9 10 9 7 10 9 11 9 9 13 14 14 10 10 9 9 9 9 9 8 8 8 8 8 8 9 9 8 9 9 11
2 2 2 2 2 3 4 4 4 5 7 10 10 13 13 10 9 9 8 8 8 8 9 10 9 8 9 10 9 11 12 13 13 13 11 9 8 9 9 8 9 9 9 9 8 8 8 8 9 9 9 9 9 10
2 3 3 2 3 4 4 4 6 6 8 10 10 11 9 10 10 9 9 9 8 9 9 9 9 10 10 10 12 12 13 15 12 10 10 9 8 8 8 8 9 8 8 8 8 8 8 8 9 9 9 9 9 9
2 4 3 3 4 4 5 7 7 9 10 10 11 8 9 9 9 8 8 9 8 9 11 10 11 11 9 12 13 11 13 11 10 10 9 9 9 7 7 8 8 8 7 8 8 8 8 8 8 10 10 10 9 9
4 2 3 4 5 6 6 6 8 9 11 10 11 9 8 8 8 8 7 8 9 10 10 10 8 11 12 13 13 11 10 9 8 8 9 8 8 7 7 8 7 7 7 8 8 8 9 9 10 10 10 9 9 9
3 4 4 5 5 7 9 9 8 11 11 9 9 8 8 8 7 7 7 7 7 7 9 10 11 11 11 9 10 9 9 9 9 8 8 7 7 7 7 7 7 7 8 8 9 9 9 9 10 9 9 9 10 10
3 4 5 4 4 7 9 9 7 10 11 9 8 9 8 8 7 7 7 8 9 10 11 12 11 9 10 9 8 8 8 8 8 9 9 9 8 7 8 8 9 8 9 9 9 9 9 9 9 9 9 9 10 10
5 5 4 4 6 6 7 9 10 9 8 9 8 8 9 8 9 9 9 8 10 11 11 10 10 9 8 8 7 8 8 8 9 10 11 11 9 9 9 9 9 9 10 10 11 10 10 10 10 9 9 9 9 9
6 5 6 6 7 8 8 6 8 7 8 8 9 8 9 10 10 9 8 10 11 10 9 9 9 8 9 9 8 8 8 8 9 10 11 10 10 10 10 10 10 11 10 10 10 10 10 10 10 10 10 9 9 9
5 5 7 7 10 10 11 6 9 9 11 10 9 10 10 10 9 8 11 10 8 7 8 8 8 7 9 8 8 8 8 8 10 10 10 10 10 9 9 10 10 11 11 11 10 10 10 11 10 10 9 9 9 9
5 8 10 10 10 11 8 10 8 9 9 10 11 11 11 10 8 10 11 9 8 8 8 8 8 9 9 9 10 10 9 9 10 10 9 10 10 10 9 10 10 10 10 10 10 10 10 10 10 10 9 10 9 9
11 11 10 12 9 10 11 11 10 10 11 10 11 11 10 9 11 11 11 9 9 9 8 8 8 9 10 10 10 10 8 9 10 11 10 10 10 10 10 11 11 11 10 11 11 10 11 10 10 9 9 10 10 10
13 11 12 11 10 11 11 12 11 11 10 11 11 9 8 10 12 13 10 8 9 8 8 8 8 9 9 9 10 10 10 8 9 11 10 10 10 11 11 12 12 12 10 10 10 11 11 10 9 9 9 9 9 9
13 12 10 7 8 9 10 9 9 10 11 11 10 11 11 13 13 10 7 6 7 6 6 6 7 8 9 9 9 9 8 8 9 10 10 10 10 10 10 12 12 11 9 9 9 9 10 9 9 9 9 8 9 9
10 9 11 10 9 9 10 10 11 11 10 9 9 12 12 12 12 8 7 6 6 6 6 6 7 8 8 9 8 9 9 9 8 8 9 9 9 9 9 9 9 10 8 9 8 8 8 8 8 8 8 9 9 8
10 9 9 11 10 10 10 11 10 9 8 8 10 11 11 9 7 7 6 6 5 7 8 9 8 8 8 8 8 8 8 8 9 10 10 11 11 11 9 8 8 7 7 8 10 8 8 8 8 8 8 8 8 8
10 8 10 11 12 12 9 8 9 8 8 8 9 9 9 8 7 6 6 6 7 8 8 8 8 8 9 9 10 9 9 9 9 9 11 11 11 9 9 8 7 7 6 6 7 7 8 7 8 8 9 9 10 10
8 9 10 10 11 10 8 7 7 8 8 9 8 10 10 9 8 8 8 7 7 7 8 8 8 8 8 8 9 10 11 10 9 9 9 9 9 8 8 7 7 6 6 7 8 9 9 9 10 10 11 11 11 11
9 10 11 12 13 10 8 9 9 10 10 10 11 10 10 10 11 9 8 7 7 8 10 8 8 9 8 9 10 10 11 10 11 10 10 9 9 9 8 7 6 6 7 8 9 10 10 10 11 11 12 12 12 12
11 11 11 11 12 12 10 10 11 12 11 11 11 10 11 11 13 10 7 7 7 7 8 8 8 9 9 9 10 11 11 11 11 11 11 11 11 10 9 9 8 7 8 8 9 10 11 12 12 13 13 13 13 13